Regional Weather Roundup
Issued by NWS Kansas City/Pleasant Hill, MO

Home | Current Version | Previous Version | Graphics & Text | Print | Product List | Glossary Off
Versions: 1 2 3 4 5 6 7 8 9 10 11 12 13 14 15 16 17 18 19 20 21 22 23 24 25 26 27 28 29 30 31 32 33 34 35 36 37 38 39 40 41 42 43 44 45 46 47 48 49 50

000
ASUS43 KEAX 280711
RWREAX

WEATHER ROUNDUP FOR EASTERN KANSAS AND NORTHWEST MISSOURI
NATIONAL WEATHER SERVICE KANSAS CITY/PLEASANT HILL MO
100 AM CST SUN DEC 28 2014

KSZ040-057-103>105-MOZ028-029-037-043-280800-
...KANSAS CITY METROPOLITAN AREA...

CITY           SKY/WX    TMP DP  RH WIND       PRES   REMARKS
K.C. INTL      CLEAR     21  18  88 SW6       30.25F WCI  13
K.C. DOWNTOWN  CLEAR     26  18  71 SW3       30.27F
LEES SUMMIT    CLEAR     22  18  85 W3        30.26F
OLATHE - IXD   CLEAR     22  17  81 CALM      30.26F
OLATHE - OJC   CLEAR     22  18  85 CALM      30.25F
LAWRENCE       CLEAR     17  15  92 SE3       30.27F

$$

MOZ001>008-011>017-020>025-030>033-038>040-044>046-053-054-280800-
...NORTHERN AND CENTRAL MISSOURI...

CITY           SKY/WX    TMP DP  RH WIND       PRES   REMARKS
ST. JOSEPH     CLEAR     18  15  88 W5        30.26F WCI  11
MOSBY            N/A     21  21 100 CALM      30.27F
WARRENSBURG    CLEAR     21  19  93 W5        30.26F WCI  15
WHITEMAN AFB   CLEAR     22  19  87 CALM      30.27S
CLINTON        CLEAR     27  23  86 CALM      30.27S
SEDALIA        CLEAR     26  21  81 NW5       30.25F WCI  20
WARSAW         NOT AVBL
MARSHALL       CLEAR     27  23  86 W3        30.27F
CHILLICOTHE      N/A     22  18  85 CALM      30.26F
MOBERLY        CLOUDY    28  21  74 NW9       30.24F WCI  20
KIRKSVILLE     CLOUDY    26  21  81 W5        30.23F WCI  20

$$

MOZ041-047>049-056>058-063>065-088>090-097-280800-
...EASTERN AND SOUTHERN MISSOURI...

CITY           SKY/WX    TMP DP  RH WIND       PRES   REMARKS
ST. LOUIS INTL CLOUDY    34  26  72 NW7       30.20F WCI  28
SPIRIT OF STL  CLOUDY    32  26  78 NW10      30.21F WCI  24
COLUMBIA       CLOUDY    28  23  81 N9        30.23F WCI  19
JEFFERSON CITY CLOUDY    30  23  75 W7        30.25F WCI  23
MEXICO         CLOUDY    30  28  93 NW9       30.22F WCI  22
HANNIBAL       CLOUDY    30  21  69 W12       30.21F WCI  21
ROLLA          CLOUDY    29  24  82 NW6       30.19S WCI  23
LEBANON        MOCLDY    28  25  86 CALM      30.21S
OSAGE BEACH    CLOUDY    30  21  69 NW5       30.23F WCI  25
SPRINGFIELD    CLOUDY    27  23  85 NW6       30.23R WCI  20
BRANSON        CLOUDY    28  25  86 CALM      30.22F
NEVADA         CLEAR     23  19  86 NW5       30.28S WCI  17
JOPLIN         PTCLDY    24  21  88 CALM      30.28R
WEST PLAINS    CLOUDY    32  27  81 N7        30.19F WCI  26

$$

IAZ060-094-KSZ022-034>040-054-083-096-NEZ052-066-093-280800-
...KANSAS...SOUTHEAST NEBRASKA AND IOWA...

CITY           SKY/WX    TMP DP  RH WIND       PRES   REMARKS
TOPEKA         CLEAR     22  19  89 CALM      30.27F
MANHATTAN      CLEAR     17  14  88 SW6       30.26F WCI   9
EMPORIA        CLEAR     18  14  84 SW5       30.26F WCI  11
CHANUTE        CLEAR     22  18  85 NW6       30.28F WCI  14
WICHITA        CLEAR     17  12  80 S5        30.28F WCI  10
OMAHA          CLEAR     18  14  84 CALM      30.20F
LINCOLN        CLEAR     19  13  77 SW6       30.20F WCI  11
FALLS CITY     CLEAR     19  15  84 SW7       30.23F WCI  10
LAMONI         CLEAR     19  16  88 SW5       30.20F WCI  12
DES MOINES     CLEAR     18  13  80 CALM      30.20S

$$



USA.gov is the U.S. government's official web portal to all federal, state and local government web resources and services.